Location: Kawakawa
(35.3830°S, 174.0670°E)
Time: 11:06:57
(UTC+13:00)

ARGOS - Pass Details

Date: 24 January 2019
Orbit: 821 x 834 km, 98.5° (Epoch: 18 February)

Event Time Altitude Azimuth Distance (km) Brightness Sun altitude
Rises 23:13:00 0° 175° (S) 3,388 7.0 -25.8°
Reaches altitude 10° 23:15:27 10° 181° (S) 2,448 6.3 -26.1°
Maximum altitude 23:20:35 45° 252° (WSW) 1,112 4.1 -26.7°
Enters shadow 23:23:31 24° 311° (NW) 1,661 4.6 -27.0°
